Year,Month,Day,Hour,Minute,Value (Times are PST for temperature in C)
2017,08,20,00,00,15.70
2017,08,20,00,01,15.70
2017,08,20,00,02,15.70
2017,08,20,00,03,15.70
2017,08,20,00,04,15.70
2017,08,20,00,05,15.70
2017,08,20,00,06,15.60
2017,08,20,00,07,15.60
2017,08,20,00,08,15.60
2017,08,20,00,09,15.50
2017,08,20,00,10,15.50
2017,08,20,00,11,15.50
2017,08,20,00,12,15.50
2017,08,20,00,13,15.50
2017,08,20,00,14,15.50
2017,08,20,00,15,15.50
2017,08,20,00,16,15.50
2017,08,20,00,17,15.40
2017,08,20,00,18,15.40
2017,08,20,00,19,15.40
2017,08,20,00,20,15.40
2017,08,20,00,21,15.40
2017,08,20,00,22,15.40
2017,08,20,00,23,15.40
2017,08,20,00,24,15.40
2017,08,20,00,25,15.40
2017,08,20,00,26,15.40
2017,08,20,00,27,15.30
2017,08,20,00,28,15.30
2017,08,20,00,29,15.30
2017,08,20,00,30,15.20
2017,08,20,00,31,15.20
2017,08,20,00,32,15.20
2017,08,20,00,33,15.20
2017,08,20,00,34,15.20
2017,08,20,00,35,15.10
2017,08,20,00,36,15.10
2017,08,20,00,37,15.10
2017,08,20,00,38,15.10
2017,08,20,00,39,15.10
2017,08,20,00,40,15.10
2017,08,20,00,41,15.10
2017,08,20,00,42,15.10
2017,08,20,00,43,15.10
2017,08,20,00,44,15.00
2017,08,20,00,45,15.00
2017,08,20,00,46,15.00
2017,08,20,00,47,15.00
2017,08,20,00,48,15.00
2017,08,20,00,49,14.90
2017,08,20,00,50,14.90
2017,08,20,00,51,14.90
2017,08,20,00,52,14.90
2017,08,20,00,53,14.90
2017,08,20,00,54,14.90
2017,08,20,00,55,14.90
2017,08,20,00,56,14.80
2017,08,20,00,57,14.80
2017,08,20,00,58,14.80
2017,08,20,00,59,14.80
2017,08,20,01,00,14.80
2017,08,20,01,01,14.80
2017,08,20,01,02,14.80
2017,08,20,01,03,14.80
2017,08,20,01,04,14.80
2017,08,20,01,05,14.80
2017,08,20,01,06,14.80
2017,08,20,01,07,14.80
2017,08,20,01,08,14.80
2017,08,20,01,09,14.80
2017,08,20,01,10,14.70
2017,08,20,01,11,14.70
2017,08,20,01,12,14.70
2017,08,20,01,13,14.70
2017,08,20,01,14,14.70
2017,08,20,01,15,14.70
2017,08,20,01,16,14.70
2017,08,20,01,17,14.70
2017,08,20,01,18,14.70
2017,08,20,01,19,14.70
2017,08,20,01,20,14.70
2017,08,20,01,21,14.60
2017,08,20,01,22,14.60
2017,08,20,01,23,14.60
2017,08,20,01,24,14.60
2017,08,20,01,25,14.60
2017,08,20,01,26,14.60
2017,08,20,01,27,14.60
2017,08,20,01,28,14.60
2017,08,20,01,29,14.60
2017,08,20,01,30,14.60
2017,08,20,01,31,14.60
2017,08,20,01,32,14.60
2017,08,20,01,33,14.60
2017,08,20,01,34,14.50
2017,08,20,01,35,14.50
2017,08,20,01,36,14.50
2017,08,20,01,37,14.50
2017,08,20,01,38,14.50
2017,08,20,01,39,14.50
2017,08,20,01,40,14.40
2017,08,20,01,41,14.40
2017,08,20,01,42,14.40
2017,08,20,01,43,14.40
2017,08,20,01,44,14.40
2017,08,20,01,45,14.40
2017,08,20,01,46,14.40
2017,08,20,01,47,14.40
2017,08,20,01,48,14.40
2017,08,20,01,49,14.40
2017,08,20,01,50,14.40
2017,08,20,01,51,14.30
2017,08,20,01,52,14.30
2017,08,20,01,53,14.30
2017,08,20,01,54,14.30
2017,08,20,01,55,14.30
2017,08,20,01,56,14.30
2017,08,20,01,57,14.30
2017,08,20,01,58,14.30
2017,08,20,01,59,14.30
2017,08,20,02,00,14.30
2017,08,20,02,01,14.30
2017,08,20,02,02,14.30
2017,08,20,02,03,14.30
2017,08,20,02,04,14.30
2017,08,20,02,05,14.30
2017,08,20,02,06,14.30
2017,08,20,02,07,14.30
2017,08,20,02,08,14.30
2017,08,20,02,09,14.30
2017,08,20,02,10,14.30
2017,08,20,02,11,14.40
2017,08,20,02,12,14.40
2017,08,20,02,13,14.40
2017,08,20,02,14,14.40
2017,08,20,02,15,14.40
2017,08,20,02,16,14.50
2017,08,20,02,17,14.50
2017,08,20,02,18,14.50
2017,08,20,02,19,14.60
2017,08,20,02,20,14.60
2017,08,20,02,21,14.60
2017,08,20,02,22,14.60
2017,08,20,02,23,14.60
2017,08,20,02,24,14.60
2017,08,20,02,25,14.60
2017,08,20,02,26,14.60
2017,08,20,02,27,14.60
2017,08,20,02,28,14.60
2017,08,20,02,29,14.60
2017,08,20,02,30,14.60
2017,08,20,02,31,14.50
2017,08,20,02,32,14.50
2017,08,20,02,33,14.50
2017,08,20,02,34,14.50
2017,08,20,02,35,14.50
2017,08,20,02,36,14.50
2017,08,20,02,37,14.50
2017,08,20,02,38,14.50
2017,08,20,02,39,14.50
2017,08,20,02,40,14.50
2017,08,20,02,41,14.50
2017,08,20,02,42,14.50
2017,08,20,02,43,14.50
2017,08,20,02,44,14.50
2017,08,20,02,45,14.50
2017,08,20,02,46,14.50
2017,08,20,02,47,14.50
2017,08,20,02,48,14.50
2017,08,20,02,49,14.50
2017,08,20,02,50,14.50
2017,08,20,02,51,14.50
2017,08,20,02,52,14.50
2017,08,20,02,53,14.40
2017,08,20,02,54,14.40
2017,08,20,02,55,14.40
2017,08,20,02,56,14.40
2017,08,20,02,57,14.40
2017,08,20,02,58,14.40
2017,08,20,02,59,14.40
2017,08,20,03,00,14.40
2017,08,20,03,01,14.40
2017,08,20,03,02,14.40
2017,08,20,03,03,14.40
2017,08,20,03,04,14.40
2017,08,20,03,05,14.40
2017,08,20,03,06,14.40
2017,08,20,03,07,14.40
2017,08,20,03,08,14.40
2017,08,20,03,09,14.40
2017,08,20,03,10,14.40
2017,08,20,03,11,14.40
2017,08,20,03,12,14.40
2017,08,20,03,13,14.40
2017,08,20,03,14,14.40
2017,08,20,03,15,14.40
2017,08,20,03,16,14.40
2017,08,20,03,17,14.40
2017,08,20,03,18,14.40
2017,08,20,03,19,14.40
2017,08,20,03,20,14.40
2017,08,20,03,21,14.40
2017,08,20,03,22,14.40
2017,08,20,03,23,14.30
2017,08,20,03,24,14.30
2017,08,20,03,25,14.30
2017,08,20,03,26,14.30
2017,08,20,03,27,14.30
2017,08,20,03,28,14.30
2017,08,20,03,29,14.30
2017,08,20,03,30,14.30
2017,08,20,03,31,14.30
2017,08,20,03,32,14.30
2017,08,20,03,33,14.30
2017,08,20,03,34,14.30
2017,08,20,03,35,14.30
2017,08,20,03,36,14.30
2017,08,20,03,37,14.30
2017,08,20,03,38,14.30
2017,08,20,03,39,14.30
2017,08,20,03,40,14.30
2017,08,20,03,41,14.30
2017,08,20,03,42,14.30
2017,08,20,03,43,14.30
2017,08,20,03,44,14.30
2017,08,20,03,45,14.30
2017,08,20,03,46,14.20
2017,08,20,03,47,14.20
2017,08,20,03,48,14.20
2017,08,20,03,49,14.20
2017,08,20,03,50,14.20
2017,08,20,03,51,14.20
2017,08,20,03,52,14.20
2017,08,20,03,53,14.20
2017,08,20,03,54,14.20
2017,08,20,03,55,14.20
2017,08,20,03,56,14.20
2017,08,20,03,57,14.20
2017,08,20,03,58,14.20
2017,08,20,03,59,14.20
2017,08,20,04,00,14.20
2017,08,20,04,01,14.20
2017,08,20,04,02,14.10
2017,08,20,04,03,14.10
2017,08,20,04,04,14.10
2017,08,20,04,05,14.10
2017,08,20,04,06,14.10
2017,08,20,04,07,14.00
2017,08,20,04,08,14.00
2017,08,20,04,09,14.00
2017,08,20,04,10,13.90
2017,08,20,04,11,13.90
2017,08,20,04,12,13.90
2017,08,20,04,13,13.90
2017,08,20,04,14,13.90
2017,08,20,04,15,13.90
2017,08,20,04,16,13.90
2017,08,20,04,17,13.90
2017,08,20,04,18,13.80
2017,08,20,04,19,13.80
2017,08,20,04,20,13.80
2017,08,20,04,21,13.80
2017,08,20,04,22,13.80
2017,08,20,04,23,13.80
2017,08,20,04,24,13.80
2017,08,20,04,25,13.80
2017,08,20,04,26,13.80
2017,08,20,04,27,13.80
2017,08,20,04,28,13.80
2017,08,20,04,29,13.80
2017,08,20,04,30,13.90
2017,08,20,04,31,13.90
2017,08,20,04,32,13.90
2017,08,20,04,33,13.90
2017,08,20,04,34,13.90
2017,08,20,04,35,13.90
2017,08,20,04,36,13.90
2017,08,20,04,37,13.90
2017,08,20,04,38,13.90
2017,08,20,04,39,13.90
2017,08,20,04,40,13.90
2017,08,20,04,41,13.90
2017,08,20,04,42,13.90
2017,08,20,04,43,13.80
2017,08,20,04,44,13.80
2017,08,20,04,45,13.80
2017,08,20,04,46,13.90
2017,08,20,04,47,13.90
2017,08,20,04,48,13.90
2017,08,20,04,49,13.90
2017,08,20,04,50,13.90
2017,08,20,04,51,13.90
2017,08,20,04,52,13.90
2017,08,20,04,53,13.90
2017,08,20,04,54,13.90
2017,08,20,04,55,13.90
2017,08,20,04,56,13.90
2017,08,20,04,57,13.90
2017,08,20,04,58,13.90
2017,08,20,04,59,13.90
2017,08,20,05,00,13.90
2017,08,20,05,01,13.90
2017,08,20,05,02,13.90
2017,08,20,05,03,13.90
2017,08,20,05,04,13.90
2017,08,20,05,05,13.90
2017,08,20,05,06,13.90
2017,08,20,05,07,13.90
2017,08,20,05,08,13.80
2017,08,20,05,09,13.80
2017,08,20,05,10,13.80
2017,08,20,05,11,13.80
2017,08,20,05,12,13.80
2017,08,20,05,13,13.80
2017,08,20,05,14,13.80
2017,08,20,05,15,13.80
2017,08,20,05,16,13.80
2017,08,20,05,17,13.70
2017,08,20,05,18,13.70
2017,08,20,05,19,13.70
2017,08,20,05,20,13.70
2017,08,20,05,21,13.70
2017,08,20,05,22,13.70
2017,08,20,05,23,13.70
2017,08,20,05,24,13.70
2017,08,20,05,25,13.70
2017,08,20,05,26,13.70
2017,08,20,05,27,13.60
2017,08,20,05,28,13.60
2017,08,20,05,29,13.60
2017,08,20,05,30,13.60
2017,08,20,05,31,13.50
2017,08,20,05,32,13.50
2017,08,20,05,33,13.50
2017,08,20,05,34,13.50
2017,08,20,05,35,13.50
2017,08,20,05,36,13.50
2017,08,20,05,37,13.40
2017,08,20,05,38,13.40
2017,08,20,05,39,13.40
2017,08,20,05,40,13.40
2017,08,20,05,41,13.40
2017,08,20,05,42,13.40
2017,08,20,05,43,13.40
2017,08,20,05,44,13.40
2017,08,20,05,45,13.40
2017,08,20,05,46,13.40
2017,08,20,05,47,13.40
2017,08,20,05,48,13.40
2017,08,20,05,49,13.40
2017,08,20,05,50,13.40
2017,08,20,05,51,13.40
2017,08,20,05,52,13.40
2017,08,20,05,53,13.40
2017,08,20,05,54,13.40
2017,08,20,05,55,13.40
2017,08,20,05,56,13.40
2017,08,20,05,57,13.40
2017,08,20,05,58,13.40
2017,08,20,05,59,13.40
2017,08,20,06,00,13.40
2017,08,20,06,01,13.40
2017,08,20,06,02,13.40
2017,08,20,06,03,13.40
2017,08,20,06,04,13.40
2017,08,20,06,05,13.40
2017,08,20,06,06,13.40
2017,08,20,06,07,13.40
2017,08,20,06,08,13.40
2017,08,20,06,09,13.40
2017,08,20,06,10,13.30
2017,08,20,06,11,13.30
2017,08,20,06,12,13.30
2017,08,20,06,13,13.30
2017,08,20,06,14,13.30
2017,08,20,06,15,13.30
2017,08,20,06,16,13.30
2017,08,20,06,17,13.30
2017,08,20,06,18,13.30
2017,08,20,06,19,13.30
2017,08,20,06,20,13.40
2017,08,20,06,21,13.40
2017,08,20,06,22,13.40
2017,08,20,06,23,13.40
2017,08,20,06,24,13.40
2017,08,20,06,25,13.40
2017,08,20,06,26,13.40
2017,08,20,06,27,13.40
2017,08,20,06,28,13.40
2017,08,20,06,29,13.40
2017,08,20,06,30,13.40
2017,08,20,06,31,13.40
2017,08,20,06,32,13.40
2017,08,20,06,33,13.30
2017,08,20,06,34,13.40
2017,08,20,06,35,13.40
2017,08,20,06,36,13.40
2017,08,20,06,37,13.40
2017,08,20,06,38,13.40
2017,08,20,06,39,13.40
2017,08,20,06,40,13.40
2017,08,20,06,41,13.40
2017,08,20,06,42,13.40
2017,08,20,06,43,13.40
2017,08,20,06,44,13.40
2017,08,20,06,45,13.40
2017,08,20,06,46,13.40
2017,08,20,06,47,13.40
2017,08,20,06,48,13.40
2017,08,20,06,49,13.40
2017,08,20,06,50,13.40
2017,08,20,06,51,13.40
2017,08,20,06,52,13.40
2017,08,20,06,53,13.40
2017,08,20,06,54,13.40
2017,08,20,06,55,13.40
2017,08,20,06,56,13.50
2017,08,20,06,57,13.50
2017,08,20,06,58,13.50
2017,08,20,06,59,13.50
2017,08,20,07,00,13.50
2017,08,20,07,01,13.50
2017,08,20,07,02,13.50
2017,08,20,07,03,13.50
2017,08,20,07,04,13.50
2017,08,20,07,05,13.50
2017,08,20,07,06,13.50
2017,08,20,07,07,13.50
2017,08,20,07,08,13.60
2017,08,20,07,09,13.60
2017,08,20,07,10,13.60
2017,08,20,07,11,13.60
2017,08,20,07,12,13.60
2017,08,20,07,13,13.60
2017,08,20,07,14,13.60
2017,08,20,07,15,13.60
2017,08,20,07,16,13.60
2017,08,20,07,17,13.60
2017,08,20,07,18,13.60
2017,08,20,07,19,13.70
2017,08,20,07,20,13.70
2017,08,20,07,21,13.70
2017,08,20,07,22,13.70
2017,08,20,07,23,13.70
2017,08,20,07,24,13.70
2017,08,20,07,25,13.70
2017,08,20,07,26,13.80
2017,08,20,07,27,13.80
2017,08,20,07,28,13.80
2017,08,20,07,29,13.80
2017,08,20,07,30,13.80
2017,08,20,07,31,13.80
2017,08,20,07,32,13.80
2017,08,20,07,33,13.80
2017,08,20,07,34,13.80
2017,08,20,07,35,13.90
2017,08,20,07,36,13.90
2017,08,20,07,37,13.90
2017,08,20,07,38,13.90
2017,08,20,07,39,13.90
2017,08,20,07,40,14.00
2017,08,20,07,41,14.00
2017,08,20,07,42,14.10
2017,08,20,07,43,14.10
2017,08,20,07,44,14.10
2017,08,20,07,45,14.10
2017,08,20,07,46,14.20
2017,08,20,07,47,14.20
2017,08,20,07,48,14.20
2017,08,20,07,49,14.20
2017,08,20,07,50,14.30
2017,08,20,07,51,14.30
2017,08,20,07,52,14.30
2017,08,20,07,53,14.40
2017,08,20,07,54,14.40
2017,08,20,07,55,14.40
2017,08,20,07,56,14.40
2017,08,20,07,57,14.40
2017,08,20,07,58,14.40
2017,08,20,07,59,14.50
2017,08,20,08,00,14.60
2017,08,20,08,01,14.60
2017,08,20,08,02,14.60
2017,08,20,08,03,14.60
2017,08,20,08,04,14.60
2017,08,20,08,05,14.60
2017,08,20,08,06,14.60
2017,08,20,08,07,14.60
2017,08,20,08,08,14.60
2017,08,20,08,09,14.60
2017,08,20,08,10,14.60
2017,08,20,08,11,14.60
2017,08,20,08,12,14.60
2017,08,20,08,13,14.60
2017,08,20,08,14,14.60
2017,08,20,08,15,14.60
2017,08,20,08,16,14.60
2017,08,20,08,17,14.60
2017,08,20,08,18,14.60
2017,08,20,08,19,14.60
2017,08,20,08,20,14.60
2017,08,20,08,21,14.70
2017,08,20,08,22,14.70
2017,08,20,08,23,14.70
2017,08,20,08,24,14.70
2017,08,20,08,25,14.70
2017,08,20,08,26,14.70
2017,08,20,08,27,14.80
2017,08,20,08,28,14.80
2017,08,20,08,29,14.80
2017,08,20,08,30,14.80
2017,08,20,08,31,14.80
2017,08,20,08,32,14.80
2017,08,20,08,33,14.80
2017,08,20,08,34,14.80
2017,08,20,08,35,14.80
2017,08,20,08,36,14.70
2017,08,20,08,37,14.70
2017,08,20,08,38,14.80
2017,08,20,08,39,14.80
2017,08,20,08,40,14.80
2017,08,20,08,41,14.90
2017,08,20,08,42,14.90
2017,08,20,08,43,15.00
2017,08,20,08,44,15.00
2017,08,20,08,45,15.10
2017,08,20,08,46,15.10
2017,08,20,08,47,15.20
2017,08,20,08,48,15.20
2017,08,20,08,49,15.30
2017,08,20,08,50,15.30
2017,08,20,08,51,15.40
2017,08,20,08,52,15.40
2017,08,20,08,53,15.50
2017,08,20,08,54,15.50
2017,08,20,08,55,15.60
2017,08,20,08,56,15.60
2017,08,20,08,57,15.70
2017,08,20,08,58,15.80
2017,08,20,08,59,15.80
2017,08,20,09,00,15.90
2017,08,20,09,01,15.90
2017,08,20,09,02,16.00
2017,08,20,09,03,16.10
2017,08,20,09,04,16.10
2017,08,20,09,05,16.20
2017,08,20,09,06,16.20
2017,08,20,09,07,16.30
2017,08,20,09,08,16.30
2017,08,20,09,09,16.40
2017,08,20,09,10,16.40
2017,08,20,09,11,16.40
2017,08,20,09,12,16.40
2017,08,20,09,13,16.40
2017,08,20,09,14,16.40
2017,08,20,09,15,16.40
2017,08,20,09,16,16.40
2017,08,20,09,17,16.40
2017,08,20,09,18,16.30
2017,08,20,09,19,16.30
2017,08,20,09,20,16.30
2017,08,20,09,21,16.30
2017,08,20,09,22,16.30
2017,08,20,09,23,16.40
2017,08,20,09,24,16.40
2017,08,20,09,25,16.40
2017,08,20,09,26,16.40
2017,08,20,09,27,16.50
2017,08,20,09,28,16.50
2017,08,20,09,29,16.50
2017,08,20,09,30,16.60
2017,08,20,09,31,16.60
2017,08,20,09,32,16.60
2017,08,20,09,33,16.60
2017,08,20,09,34,16.60
2017,08,20,09,35,16.60
2017,08,20,09,36,16.60
2017,08,20,09,37,16.70
2017,08,20,09,38,16.70
2017,08,20,09,39,16.80
2017,08,20,09,40,16.90
2017,08,20,09,41,16.90
2017,08,20,09,42,17.00
2017,08,20,09,43,17.00
2017,08,20,09,44,17.10
2017,08,20,09,45,17.10
2017,08,20,09,46,17.10
2017,08,20,09,47,17.20
2017,08,20,09,48,17.20
2017,08,20,09,49,17.20
2017,08,20,09,50,17.20
2017,08,20,09,51,17.20
2017,08,20,09,52,17.20
2017,08,20,09,53,17.20
2017,08,20,09,54,17.20
2017,08,20,09,55,17.30
2017,08,20,09,56,17.30
2017,08,20,09,57,17.40
2017,08,20,09,58,17.40
2017,08,20,09,59,17.50
2017,08,20,10,00,17.50
2017,08,20,10,01,17.60
2017,08,20,10,02,17.60
2017,08,20,10,03,17.70
2017,08,20,10,04,17.80
2017,08,20,10,05,18.00
2017,08,20,10,06,18.10
2017,08,20,10,07,18.20
2017,08,20,10,08,18.30
2017,08,20,10,09,18.40
2017,08,20,10,10,18.40
2017,08,20,10,11,18.40
2017,08,20,10,12,18.50
2017,08,20,10,13,18.40
2017,08,20,10,14,18.40
2017,08,20,10,15,18.40
2017,08,20,10,16,18.40
2017,08,20,10,17,18.30
2017,08,20,10,18,18.30
2017,08,20,10,19,18.30
2017,08,20,10,20,18.30
2017,08,20,10,21,18.40
2017,08,20,10,22,18.50
2017,08,20,10,23,18.50
2017,08,20,10,24,18.60
2017,08,20,10,25,18.60
2017,08,20,10,26,18.60
2017,08,20,10,27,18.60
2017,08,20,10,28,18.70
2017,08,20,10,29,18.70
2017,08,20,10,30,18.70
2017,08,20,10,31,18.70
2017,08,20,10,32,18.80
2017,08,20,10,33,18.80
2017,08,20,10,34,18.90
2017,08,20,10,35,18.90
2017,08,20,10,36,18.90
2017,08,20,10,37,18.90
2017,08,20,10,38,18.90
2017,08,20,10,39,18.90
2017,08,20,10,40,18.90
2017,08,20,10,41,19.00
2017,08,20,10,42,19.00
2017,08,20,10,43,19.10
2017,08,20,10,44,19.10
2017,08,20,10,45,19.10
2017,08,20,10,46,19.20
2017,08,20,10,47,19.30
2017,08,20,10,48,19.50
2017,08,20,10,49,19.50
2017,08,20,10,50,19.60
2017,08,20,10,51,19.70
2017,08,20,10,52,19.70
2017,08,20,10,53,19.80
2017,08,20,10,54,19.80
2017,08,20,10,55,19.80
2017,08,20,10,56,19.80
2017,08,20,10,57,19.70
2017,08,20,10,58,19.70
2017,08,20,10,59,19.70
2017,08,20,11,00,19.70
2017,08,20,11,01,19.70
2017,08,20,11,02,19.70
2017,08,20,11,03,19.70
2017,08,20,11,04,19.80
2017,08,20,11,05,19.90
2017,08,20,11,06,19.90
2017,08,20,11,07,19.90
2017,08,20,11,08,19.90
2017,08,20,11,09,19.80
2017,08,20,11,10,19.80
2017,08,20,11,11,19.80
2017,08,20,11,12,19.80
2017,08,20,11,13,19.90
2017,08,20,11,14,19.90
2017,08,20,11,15,19.90
2017,08,20,11,16,20.00
2017,08,20,11,17,20.00
2017,08,20,11,18,20.10
2017,08,20,11,19,20.00
2017,08,20,11,20,20.00
2017,08,20,11,21,20.00
2017,08,20,11,22,20.00
2017,08,20,11,23,20.10
2017,08,20,11,24,20.10
2017,08,20,11,25,20.20
2017,08,20,11,26,20.20
2017,08,20,11,27,20.20
2017,08,20,11,28,20.30
2017,08,20,11,29,20.30
2017,08,20,11,30,20.40
2017,08,20,11,31,20.40
2017,08,20,11,32,20.50
2017,08,20,11,33,20.40
2017,08,20,11,34,20.40
2017,08,20,11,35,20.40
2017,08,20,11,36,20.40
2017,08,20,11,37,20.40
2017,08,20,11,38,20.50
2017,08,20,11,39,20.50
2017,08,20,11,40,20.50
2017,08,20,11,41,20.50
2017,08,20,11,42,20.50
2017,08,20,11,43,20.50
2017,08,20,11,44,20.40
2017,08,20,11,45,20.40
2017,08,20,11,46,20.40
2017,08,20,11,47,20.50
2017,08,20,11,48,20.50
2017,08,20,11,49,20.50
2017,08,20,11,50,20.60
2017,08,20,11,51,20.70
2017,08,20,11,52,20.80
2017,08,20,11,53,20.90
2017,08,20,11,54,21.10
2017,08,20,11,55,21.20
2017,08,20,11,56,21.20
2017,08,20,11,57,21.20
2017,08,20,11,58,21.30
2017,08,20,11,59,21.30
2017,08,20,12,00,21.40
2017,08,20,12,01,21.40
2017,08,20,12,02,21.40
2017,08,20,12,03,21.40
2017,08,20,12,04,21.40
2017,08,20,12,05,21.40
2017,08,20,12,06,21.40
2017,08,20,12,07,21.40
2017,08,20,12,08,21.40
2017,08,20,12,09,21.50
2017,08,20,12,10,21.60
2017,08,20,12,11,21.70
2017,08,20,12,12,21.80
2017,08,20,12,13,21.90
2017,08,20,12,14,21.90
2017,08,20,12,15,22.00
2017,08,20,12,16,22.10
2017,08,20,12,17,22.10
2017,08,20,12,18,22.00
2017,08,20,12,19,22.00
2017,08,20,12,20,22.00
2017,08,20,12,21,22.10
2017,08,20,12,22,22.10
2017,08,20,12,23,22.10
2017,08,20,12,24,22.20
2017,08,20,12,25,22.40
2017,08,20,12,26,22.50
2017,08,20,12,27,22.50
2017,08,20,12,28,22.60
2017,08,20,12,29,22.60
2017,08,20,12,30,22.60
2017,08,20,12,31,22.60
2017,08,20,12,32,22.60
2017,08,20,12,33,22.60
2017,08,20,12,34,22.60
2017,08,20,12,35,22.60
2017,08,20,12,36,22.60
2017,08,20,12,37,22.70
2017,08,20,12,38,22.80
2017,08,20,12,39,22.90
2017,08,20,12,40,23.00
2017,08,20,12,41,23.00
2017,08,20,12,42,23.10
2017,08,20,12,43,23.20
2017,08,20,12,44,23.20
2017,08,20,12,45,23.20
2017,08,20,12,46,23.10
2017,08,20,12,47,23.10
2017,08,20,12,48,23.00
2017,08,20,12,49,23.00
2017,08,20,12,50,23.00
2017,08,20,12,51,23.00
2017,08,20,12,52,23.00
2017,08,20,12,53,23.00
2017,08,20,12,54,23.20
2017,08,20,12,55,23.30
2017,08,20,12,56,23.30
2017,08,20,12,57,23.30
2017,08,20,12,58,23.30
2017,08,20,12,59,23.40
2017,08,20,13,00,23.50
2017,08,20,13,01,23.60
2017,08,20,13,02,23.70
2017,08,20,13,03,23.70
2017,08,20,13,04,23.80
2017,08,20,13,05,23.80
2017,08,20,13,06,23.80
2017,08,20,13,07,23.80
2017,08,20,13,08,23.80
2017,08,20,13,09,23.80
2017,08,20,13,10,23.80
2017,08,20,13,11,23.80
2017,08,20,13,12,23.80
2017,08,20,13,13,23.80
2017,08,20,13,14,23.80
2017,08,20,13,15,23.70
2017,08,20,13,16,23.70
2017,08,20,13,17,23.60
2017,08,20,13,18,23.50
2017,08,20,13,19,23.50
2017,08,20,13,20,23.40
2017,08,20,13,21,23.30
2017,08,20,13,22,23.40
2017,08,20,13,23,23.40
2017,08,20,13,24,23.50
2017,08,20,13,25,23.60
2017,08,20,13,26,23.50
2017,08,20,13,27,23.40
2017,08,20,13,28,23.40
2017,08,20,13,29,23.40
2017,08,20,13,30,23.40
2017,08,20,13,31,23.40
2017,08,20,13,32,23.40
2017,08,20,13,33,23.40
2017,08,20,13,34,23.50
2017,08,20,13,35,23.60
2017,08,20,13,36,23.70
2017,08,20,13,37,23.80
2017,08,20,13,38,23.80
2017,08,20,13,39,23.80
2017,08,20,13,40,23.80
2017,08,20,13,41,23.90
2017,08,20,13,42,24.00
2017,08,20,13,43,24.10
2017,08,20,13,44,24.20
2017,08,20,13,45,24.30
2017,08,20,13,46,24.30
2017,08,20,13,47,24.40
2017,08,20,13,48,24.50
2017,08,20,13,49,24.50
2017,08,20,13,50,24.60
2017,08,20,13,51,24.60
2017,08,20,13,52,24.50
2017,08,20,13,53,24.50
2017,08,20,13,54,24.40
2017,08,20,13,55,24.40
2017,08,20,13,56,24.40
2017,08,20,13,57,24.40
2017,08,20,13,58,24.40
2017,08,20,13,59,24.40
2017,08,20,14,00,24.40
2017,08,20,14,01,24.40
2017,08,20,14,02,24.30
2017,08,20,14,03,24.20
2017,08,20,14,04,24.20
2017,08,20,14,05,24.30
2017,08,20,14,06,24.40
2017,08,20,14,07,24.50
2017,08,20,14,08,24.60
2017,08,20,14,09,24.60
2017,08,20,14,10,24.60
2017,08,20,14,11,24.60
2017,08,20,14,12,24.70
2017,08,20,14,13,24.80
2017,08,20,14,14,24.80
2017,08,20,14,15,24.80
2017,08,20,14,16,24.80
2017,08,20,14,17,24.90
2017,08,20,14,18,24.90
2017,08,20,14,19,24.90
2017,08,20,14,20,24.90
2017,08,20,14,21,24.90
2017,08,20,14,22,24.80
2017,08,20,14,23,24.80
2017,08,20,14,24,24.80
2017,08,20,14,25,24.70
2017,08,20,14,26,24.70
2017,08,20,14,27,24.80
2017,08,20,14,28,24.90
2017,08,20,14,29,24.90
2017,08,20,14,30,25.00
2017,08,20,14,31,25.10
2017,08,20,14,32,25.10
2017,08,20,14,33,25.00
2017,08,20,14,34,24.90
2017,08,20,14,35,24.90
2017,08,20,14,36,24.90
2017,08,20,14,37,24.90
2017,08,20,14,38,24.90
2017,08,20,14,39,24.90
2017,08,20,14,40,24.80
2017,08,20,14,41,24.80
2017,08,20,14,42,24.70
2017,08,20,14,43,24.70
2017,08,20,14,44,24.70
2017,08,20,14,45,24.80
2017,08,20,14,46,25.00
2017,08,20,14,47,25.00
2017,08,20,14,48,25.10
2017,08,20,14,49,25.20
2017,08,20,14,50,25.30
2017,08,20,14,51,25.30
2017,08,20,14,52,25.20
2017,08,20,14,53,25.10
2017,08,20,14,54,25.10
2017,08,20,14,55,25.10
2017,08,20,14,56,25.10
2017,08,20,14,57,25.00
2017,08,20,14,58,25.00
2017,08,20,14,59,25.10
2017,08,20,15,00,25.20
2017,08,20,15,01,25.30
2017,08,20,15,02,25.40
2017,08,20,15,03,25.50
2017,08,20,15,04,25.50
2017,08,20,15,05,25.30
2017,08,20,15,06,25.20
2017,08,20,15,07,25.20
2017,08,20,15,08,25.10
2017,08,20,15,09,25.00
2017,08,20,15,10,24.90
2017,08,20,15,11,24.90
2017,08,20,15,12,24.90
2017,08,20,15,13,25.00
2017,08,20,15,14,25.10
2017,08,20,15,15,25.10
2017,08,20,15,16,25.10
2017,08,20,15,17,25.10
2017,08,20,15,18,25.10
2017,08,20,15,19,25.10
2017,08,20,15,20,25.20
2017,08,20,15,21,25.20
2017,08,20,15,22,25.30
2017,08,20,15,23,25.30
2017,08,20,15,24,25.40
2017,08,20,15,25,25.50
2017,08,20,15,26,25.70
2017,08,20,15,27,25.80
2017,08,20,15,28,26.00
2017,08,20,15,29,26.10
2017,08,20,15,30,26.20
2017,08,20,15,31,26.10
2017,08,20,15,32,26.10
2017,08,20,15,33,26.00
2017,08,20,15,34,25.90
2017,08,20,15,35,25.80
2017,08,20,15,36,25.80
2017,08,20,15,37,25.80
2017,08,20,15,38,25.80
2017,08,20,15,39,25.80
2017,08,20,15,40,25.80
2017,08,20,15,41,25.80
2017,08,20,15,42,25.80
2017,08,20,15,43,25.70
2017,08,20,15,44,25.70
2017,08,20,15,45,25.80
2017,08,20,15,46,25.90
2017,08,20,15,47,26.10
2017,08,20,15,48,26.20
2017,08,20,15,49,26.10
2017,08,20,15,50,26.00
2017,08,20,15,51,26.00
2017,08,20,15,52,25.90
2017,08,20,15,53,25.90
2017,08,20,15,54,25.80
2017,08,20,15,55,25.80
2017,08,20,15,56,25.80
2017,08,20,15,57,25.80
2017,08,20,15,58,25.90
2017,08,20,15,59,26.00
2017,08,20,16,00,26.00
2017,08,20,16,01,25.90
2017,08,20,16,02,25.80
2017,08,20,16,03,25.80
2017,08,20,16,04,25.80
2017,08,20,16,05,25.90
2017,08,20,16,06,25.90
2017,08,20,16,07,25.90
2017,08,20,16,08,26.00
2017,08,20,16,09,26.00
2017,08,20,16,10,26.00
2017,08,20,16,11,25.90
2017,08,20,16,12,25.80
2017,08,20,16,13,25.90
2017,08,20,16,14,25.80
2017,08,20,16,15,25.80
2017,08,20,16,16,25.80
2017,08,20,16,17,25.80
2017,08,20,16,18,25.80
2017,08,20,16,19,25.70
2017,08,20,16,20,25.70
2017,08,20,16,21,25.50
2017,08,20,16,22,25.40
2017,08,20,16,23,25.40
2017,08,20,16,24,25.30
2017,08,20,16,25,25.20
2017,08,20,16,26,25.20
2017,08,20,16,27,25.20
2017,08,20,16,28,25.30
2017,08,20,16,29,25.30
2017,08,20,16,30,25.30
2017,08,20,16,31,25.20
2017,08,20,16,32,25.20
2017,08,20,16,33,25.20
2017,08,20,16,34,25.20
2017,08,20,16,35,25.30
2017,08,20,16,36,25.30
2017,08,20,16,37,25.30
2017,08,20,16,38,25.40
2017,08,20,16,39,25.50
2017,08,20,16,40,25.60
2017,08,20,16,41,25.70
2017,08,20,16,42,25.80
2017,08,20,16,43,25.80
2017,08,20,16,44,25.80
2017,08,20,16,45,25.90
2017,08,20,16,46,25.90
2017,08,20,16,47,26.00
2017,08,20,16,48,26.00
2017,08,20,16,49,25.90
2017,08,20,16,50,25.90
2017,08,20,16,51,25.80
2017,08,20,16,52,25.80
2017,08,20,16,53,25.70
2017,08,20,16,54,25.70
2017,08,20,16,55,25.80
2017,08,20,16,56,25.80
2017,08,20,16,57,25.90
2017,08,20,16,58,26.00
2017,08,20,16,59,26.10
2017,08,20,17,00,26.20
2017,08,20,17,01,26.20
2017,08,20,17,02,26.20
2017,08,20,17,03,26.20
2017,08,20,17,04,26.10
2017,08,20,17,05,26.10
2017,08,20,17,06,26.10
2017,08,20,17,07,26.00
2017,08,20,17,08,25.90
2017,08,20,17,09,25.80
2017,08,20,17,10,25.80
2017,08,20,17,11,25.90
2017,08,20,17,12,25.90
2017,08,20,17,13,25.90
2017,08,20,17,14,26.00
2017,08,20,17,15,26.00
2017,08,20,17,16,26.10
2017,08,20,17,17,26.00
2017,08,20,17,18,26.00
2017,08,20,17,19,25.80